When you browse on this site, cookies collect data to enhance your experience and personalize the content and advertising you see.
Visit our Privacy Policy to learn more. By continuing to use the site, you agree to this use of cookies and data.
  • En España
  • Lista de países
  • Para 7 días
  • Temperatura del agua
  • Mapa Satelital
  • El tiempo en el mapa
  • Informadores
  • user-avatar
    Iniciar sesión

    Tiempo cada hora Viedma

    Hoy, 23 Julio, Martes

    Tiempo Temperatura Precipitaciones Viento Presión Humedad
    00:00 +4°C° 0 mm 4 mps 764 mmHg 37%
    01:00 +3°C° 0 mm 4 mps 763 mmHg 39%
    02:00 +3°C° 0 mm 4 mps 763 mmHg 41%
    03:00 +3°C° 0 mm 4 mps 763 mmHg 45%
    04:00 +3°C° 0 mm 4 mps 763 mmHg 49%
    05:00 +1°C° 0 mm 5 mps 764 mmHg 53%
    06:00 +1°C° 0 mm 4 mps 764 mmHg 54%
    07:00 +1°C° 0 mm 4 mps 764 mmHg 55%
    08:00 +1°C° 0 mm 4 mps 764 mmHg 55%
    09:00 +4°C° 0 mm 4 mps 765 mmHg 50%
    10:00 +7°C° 0 mm 5 mps 765 mmHg 45%
    11:00 +9°C° 0 mm 5 mps 766 mmHg 40%
    12:00 +10°C° 0 mm 5 mps 765 mmHg 39%
    13:00 +10°C° 0 mm 5 mps 765 mmHg 37%
    14:00 +12°C° 0 mm 5 mps 765 mmHg 36%
    15:00 +11°C° 0 mm 4 mps 765 mmHg 40%
    16:00 +10°C° 0 mm 3 mps 765 mmHg 44%
    17:00 +8°C° 0 mm 3 mps 766 mmHg 49%
    18:00 +7°C° 0 mm 2 mps 766 mmHg 53%
    19:00 +7°C° 0 mm 1 mps 766 mmHg 58%
    20:00 +6°C° 0 mm 1 mps 767 mmHg 63%
    21:00 +6°C° 0 mm 1 mps 767 mmHg 63%
    22:00 +6°C° 0 mm 1 mps 767 mmHg 63%
    23:00 +6°C° 0 mm 1 mps 768 mmHg 64%

    Mañana, 24 Julio, Miércoles

    Tiempo Temperatura Precipitaciones Viento Presión Humedad
    00:00 +6°C° 0 mm 1 mps 768 mmHg 65%
    01:00 +5°C° 0 mm 1 mps 768 mmHg 66%
    02:00 +5°C° 0 mm 1 mps 768 mmHg 68%
    03:00 +5°C° 0 mm 1 mps 768 mmHg 64%
    04:00 +4°C° 0 mm 2 mps 768 mmHg 61%
    05:00 +4°C° 0 mm 2 mps 768 mmHg 58%
    06:00 +4°C° 0 mm 2 mps 768 mmHg 55%
    07:00 +3°C° 0 mm 3 mps 768 mmHg 53%
    08:00 +3°C° 0 mm 3 mps 768 mmHg 50%
    09:00 +5°C° 0 mm 3 mps 768 mmHg 45%
    10:00 +7°C° 0 mm 4 mps 768 mmHg 40%
    11:00 +10°C° 0 mm 5 mps 768 mmHg 35%
    12:00 +12°C° 0 mm 5 mps 768 mmHg 33%
    13:00 +13°C° 0 mm 5 mps 767 mmHg 31%
    14:00 +14°C° 0 mm 6 mps 767 mmHg 29%
    15:00 +13°C° 0 mm 5 mps 766 mmHg 32%
    16:00 +11°C° 0 mm 4 mps 766 mmHg 34%
    17:00 +10°C° 0 mm 3 mps 766 mmHg 37%
    18:00 +10°C° 0 mm 4 mps 766 mmHg 37%
    19:00 +8°C° 0 mm 4 mps 766 mmHg 37%
    20:00 +7°C° 0 mm 4 mps 766 mmHg 37%
    21:00 +7°C° 0 mm 5 mps 766 mmHg 39%
    22:00 +7°C° 0 mm 5 mps 766 mmHg 40%
    23:00 +6°C° 0 mm 5 mps 766 mmHg 42%

    Pasado mañana, 25 Julio, Jueves

    Tiempo Temperatura Precipitaciones Viento Presión Humedad
    00:00 +5°C° 0 mm 6 mps 765 mmHg 42%
    01:00 +5°C° 0 mm 6 mps 765 mmHg 43%
    02:00 +5°C° 0 mm 6 mps 765 mmHg 44%
    03:00 +5°C° 0 mm 6 mps 765 mmHg 46%
    04:00 +4°C° 0 mm 6 mps 765 mmHg 48%
    05:00 +5°C° 0 mm 5 mps 765 mmHg 49%
    06:00 +4°C° 0 mm 6 mps 764 mmHg 50%
    07:00 +4°C° 0 mm 6 mps 764 mmHg 51%
    08:00 +4°C° 0 mm 6 mps 764 mmHg 52%
    09:00 +6°C° 0 mm 7 mps 764 mmHg 47%
    10:00 +9°C° 0 mm 8 mps 764 mmHg 41%
    11:00 +11°C° 0 mm 8 mps 764 mmHg 36%
    12:00 +11°C° 0 mm 8 mps 764 mmHg 35%
    13:00 +12°C° 0 mm 8 mps 763 mmHg 34%
    14:00 +13°C° 0 mm 8 mps 762 mmHg 33%
    15:00 +12°C° 0 mm 7 mps 762 mmHg 35%
    16:00 +11°C° 0 mm 6 mps 762 mmHg 37%
    17:00 +11°C° 0 mm 6 mps 762 mmHg 39%
    18:00 +10°C° 0 mm 6 mps 762 mmHg 41%
    19:00 +9°C° 0 mm 6 mps 762 mmHg 42%
    20:00 +8°C° 0 mm 6 mps 762 mmHg 44%
    21:00 +8°C° 0 mm 6 mps 762 mmHg 45%
    22:00 +8°C° 0 mm 7 mps 762 mmHg 46%
    23:00 +6°C° 0 mm 7 mps 762 mmHg 47%

    26 Julio, Viernes

    Tiempo Temperatura Precipitaciones Viento Presión Humedad
    00:00 +6°C° 0 mm 7 mps 761 mmHg 49%
    01:00 +6°C° 0 mm 7 mps 761 mmHg 50%
    02:00 +6°C° 0 mm 7 mps 761 mmHg 52%
    03:00 +5°C° 0 mm 6 mps 761 mmHg 53%
    04:00 +6°C° 0 mm 5 mps 761 mmHg 53%
    05:00 +6°C° 0 mm 5 mps 761 mmHg 54%
    06:00 +6°C° 0 mm 4 mps 761 mmHg 57%
    07:00 +5°C° 0 mm 3 mps 761 mmHg 60%
    08:00 +6°C° 0 mm 2 mps 761 mmHg 63%
    09:00 +7°C° 0 mm 5 mps 762 mmHg 57%
    10:00 +10°C° 0 mm 7 mps 762 mmHg 50%
    11:00 +12°C° 0 mm 9 mps 763 mmHg 43%
    12:00 +12°C° 0 mm 8 mps 763 mmHg 43%
    13:00 +12°C° 0 mm 8 mps 763 mmHg 43%
    14:00 +12°C° 0 mm 7 mps 763 mmHg 43%
    15:00 +11°C° 0 mm 6 mps 763 mmHg 48%
    16:00 +10°C° 0 mm 5 mps 763 mmHg 53%
    17:00 +8°C° 0 mm 4 mps 763 mmHg 58%
    18:00 +8°C° 0 mm 3 mps 764 mmHg 64%
    19:00 +7°C° 0 mm 3 mps 764 mmHg 69%
    20:00 +7°C° 0 mm 3 mps 765 mmHg 74%
    21:00 +5°C° 0 mm 3 mps 765 mmHg 75%
    22:00 +5°C° 0 mm 3 mps 765 mmHg 75%
    23:00 +6°C° 0 mm 2 mps 766 mmHg 75%

    27 Julio, Sábado

    Tiempo Temperatura Precipitaciones Viento Presión Humedad
    00:00 +6°C° 0 mm 2 mps 766 mmHg 76%
    01:00 +5°C° 0 mm 2 mps 765 mmHg 77%
    02:00 +5°C° 0 mm 2 mps 765 mmHg 79%
    03:00 +5°C° 0 mm 2 mps 765 mmHg 78%
    04:00 +4°C° 0 mm 2 mps 765 mmHg 77%
    05:00 +4°C° 0 mm 2 mps 765 mmHg 76%
    06:00 +4°C° 0 mm 2 mps 765 mmHg 74%
    07:00 +4°C° 0 mm 2 mps 765 mmHg 72%
    08:00 +4°C° 0 mm 2 mps 765 mmHg 70%
    09:00 +7°C° 0 mm 2 mps 766 mmHg 60%
    10:00 +9°C° 0 mm 3 mps 766 mmHg 49%
    11:00 +11°C° 0 mm 3 mps 766 mmHg 38%
    12:00 +12°C° 0 mm 3 mps 766 mmHg 34%
    13:00 +13°C° 0 mm 4 mps 765 mmHg 31%
    14:00 +14°C° 0 mm 4 mps 765 mmHg 27%
    15:00 +13°C° 0 mm 4 mps 764 mmHg 30%
    16:00 +11°C° 0 mm 3 mps 764 mmHg 33%
    17:00 +10°C° 0 mm 3 mps 764 mmHg 36%
    18:00 +9°C° 0 mm 3 mps 764 mmHg 42%
    19:00 +7°C° 0 mm 4 mps 764 mmHg 48%
    20:00 +5°C° 0 mm 4 mps 764 mmHg 54%
    21:00 +5°C° 0 mm 4 mps 763 mmHg 55%
    22:00 +5°C° 0 mm 4 mps 763 mmHg 56%
    23:00 +5°C° 0 mm 5 mps 763 mmHg 57%

    28 Julio, Domingo

    Tiempo Temperatura Precipitaciones Viento Presión Humedad
    00:00 +5°C° 0 mm 5 mps 763 mmHg 60%
    01:00 +6°C° 0 mm 5 mps 763 mmHg 63%
    02:00 +6°C° 0 mm 5 mps 762 mmHg 67%
    03:00 +6°C° 0 mm 5 mps 762 mmHg 63%
    04:00 +6°C° 0 mm 5 mps 762 mmHg 59%
    05:00 +7°C° 0 mm 6 mps 762 mmHg 56%
    06:00 +7°C° 0 mm 6 mps 761 mmHg 58%
    07:00 +7°C° 0 mm 6 mps 761 mmHg 61%
    08:00 +7°C° 0 mm 6 mps 761 mmHg 63%
    09:00 +8°C° 0 mm 7 mps 761 mmHg 61%
    10:00 +10°C° 0 mm 8 mps 761 mmHg 58%
    11:00 +12°C° 0 mm 9 mps 761 mmHg 56%
    12:00 +13°C° 0 mm 9 mps 760 mmHg 53%
    13:00 +15°C° 0 mm 9 mps 759 mmHg 50%
    14:00 +16°C° 0 mm 9 mps 759 mmHg 48%
    15:00 +16°C° 0 mm 8 mps 758 mmHg 51%
    16:00 +15°C° 0 mm 7 mps 758 mmHg 53%
    17:00 +14°C° 0 mm 6 mps 758 mmHg 56%
    18:00 +14°C° 0 mm 6 mps 758 mmHg 57%
    19:00 +12°C° 0 mm 7 mps 758 mmHg 58%
    20:00 +12°C° 0 mm 7 mps 758 mmHg 59%
    21:00 +12°C° 0 mm 7 mps 758 mmHg 60%
    22:00 +12°C° 0 mm 7 mps 758 mmHg 61%
    23:00 +12°C° 0 mm 8 mps 758 mmHg 62%
    Mostrar más